Location: *
(58.7167°N, 26.1833°E)
Time: 20:09:57
(UTC+00:00)

Alouette 2 Rocket - Pass Details

Date: 25 August 2019
Orbit: 503 x 2650 km, 79.8° (Epoch: 14 October)

Event Time Altitude Azimuth Distance (km) Brightness Sun altitude
Exits shadow 23:31:17 39° 181° (S) 1,031 4.2 -19.1°
Maximum altitude 23:32:58 76° 104° (ESE) 784 4.0 -19.0°
Drops below altitude 10° 23:39:12 10° 20° (NNE) 2,882 8.2 -18.7°
Sets 23:42:26 0° 20° (NNE) 4,176 9.5 -18.6°
